Regional Weather Roundup
Issued by NWS Sterling, VA

Home | Current Version | Previous Version | Text Only | Print | Product List | Glossary Off
Versions: 1 2 3 4 5 6 7 8 9 10 11 12 13 14 15 16 17 18 19 20 21 22 23 24 25 26 27

000
ASUS41 KLWX 231711
RWRLWX

REGIONAL WEATHER ROUNDUP
NATIONAL WEATHER SERVICE BALTIMORE MD/WASHINGTON DC
100 PM EDT TUE AUG 23 2016

Note: "FAIR" indicates few or no clouds below 12,000 feet
with no significant weather and/or obstructions to visibility.
 TC=TEMPERATURE CELSIUS

 * =Non NWS site. Station does not report precipitation (e.g. rain,
    snow, etc.), thunder, or fog.

DCZ001-MDZ009-015-VAZ040>042-051-053>054-231800-
WASHINGTON METRO

CITY           SKY/WX    TMP DP  RH WIND       PRES   REMARKS
WASHINGTON NAT MOSUNNY   82  58  43 VRB5      30.33F
DULLES         MOSUNNY   79  56  45 SW5       30.33F
ANDREWS AFB    SUNNY     79  57  47 VRB2      30.33F
FT BELVOIR     SUNNY     80  58  46 SE5       30.33F
QUANTICO       MOSUNNY   80  58  46 S3        30.34F
COLLEGE PARK*  SUNNY     79  55  44 SE5       30.33S
LEESBURG*      MOSUNNY   81  63  54 CALM      30.34F
MANASSAS*      SUNNY     81  57  44 CALM      30.33
GAITHERSBURG*  MOSUNNY   79  55  44 CALM      30.37F

$$

MDZ006>007-011-014-231800-
BALTIMORE METRO

CITY           SKY/WX    TMP DP  RH WIND       PRES   REMARKS
BWI AIRPORT    MOSUNNY   81  58  45 VRB3      30.33F
MD SCIENCE CTR   N/A     78  55  44 MISG      30.33F
MARTIN STATE   MOSUNNY   79  57  47 SE7       30.35F
ANNAPOLIS      SUNNY     78  57  48 SE6       30.34S
FORT MEADE*    SUNNY     79  59  50 CALM      30.35F

$$

MDZ012-015-019>023-231800-
MARYLAND EASTERN SHORE

CITY           SKY/WX    TMP DP  RH WIND       PRES   REMARKS
OCEAN CITY     SUNNY     77  56  48 E10       30.34S
SALISBURY      SUNNY     79  54  41 NE10      30.33S
BAY BRIDGE AP* SUNNY     81  55  41 S6        30.34S
CAMBRIDGE*     SUNNY     77  54  44 CALM      30.33F
EASTON*        SUNNY     81  59  47 NE7       30.37F

$$

MDZ017>025-231800-
SOUTHERN MARYLAND

CITY           SKY/WX    TMP DP  RH WIND       PRES   REMARKS
PATUXENT RIVER MOSUNNY   79  53  40 E8        30.34S
ST INIGOES     SUNNY     79  55  43 E5        30.33F
LEONARDTOWN*   SUNNY     77  52  41 NE5       30.36S

$$

MDZ003>005-231800-
NORTH CENTRAL MARYLAND

CITY           SKY/WX    TMP DP  RH WIND       PRES   REMARKS
FREDERICK*     SUNNY     79  61  53 CALM      30.36
HAGERSTOWN APT SUNNY     79  56  45 VRB7      30.34F

$$

MDZ501>502-231800-
WESTERN MARYLAND

CITY           SKY/WX    TMP DP  RH WIND       PRES   REMARKS
OAKLAND*         N/A     68  55  64 S5        30.39F
CUMBERLAND*    SUNNY     79  59  50 E3        30.36F

$$

VAZ025>031-231800-
SHENANDOAH VALLEY

CITY           SKY/WX    TMP DP  RH WIND       PRES   REMARKS
WINCHESTER*    MOSUNNY   81  61  50 S6        30.34S
FRONT ROYAL*   FAIR      79  61  53 CALM      30.33S
LURAY*         FAIR      79  61  53 E3        30.34S
NEW MARKET*    FAIR     N/A N/A N/A SW3       30.32F
STAUNTON*      MOSUNNY   76  60  56 SE7       30.37S
WAYNESBORO*    FAIR      76  61  59 E7        30.36F

$$

WVZ021-048>050-054>055-231800-
EASTERN WEST VIRGINIA PANHANDLE

CITY           SKY/WX    TMP DP  RH WIND       PRES   REMARKS
MARTINSBURG    SUNNY     78  60  53 SE5       30.33F
PETERSBURG*    PTSUNNY   80  60  51 CALM      30.32F

$$

VAZ036>039-050-231800-
CENTRAL FOOTHILLS

CITY           SKY/WX    TMP DP  RH WIND       PRES   REMARKS
CHARLOTTESVILL PTSUNNY   79  63  57 VRB3      30.34F
CULPEPER*      MOSUNNY   80  65  60 CALM      30.35S
ORANGE*          N/A     79  61  53 CALM      30.36S
GORDONSVILLE*  PTSUNNY   79  66  65 E5        30.33F
WARRENTON*     FAIR      81  56  41 E5        30.33F

$$

VAZ055>057-231800-
NORTH AND CENTRAL PIEDMONT

CITY           SKY/WX    TMP DP  RH WIND       PRES   REMARKS
FREDERICKSBRG* SUNNY     81  61  50 E6        30.32F
STAFFORD*      MOSUNNY   80  58  47 SE3       30.38S

$$

NCZ024-NYZ072-PAZ021-071-VAZ022-071-231800-
OTHER REGIONAL OBSERVATIONS

CITY           SKY/WX    TMP DP  RH WIND       PRES   REMARKS
NEW YORK CITY  SUNNY     79  54  41 CALM      30.33F
PHILADELPHIA   MOSUNNY   79  51  37 S8        30.32F
PITTSBURGH     PTSUNNY   76  54  46 VRB7      30.31F
ROANOKE        MOSUNNY   78  61  55 SE8       30.36F
RICHMOND       PTSUNNY   83  59  44 E6        30.32S
RALEIGH        MOSUNNY   85  59  41 VRB5      30.31F

$$

ANZ530>537-231800-
MARINE OBSERVATIONS

STATION/POSITION TIME  TEMP    WIND        PRES
                       AIR SEA DIR/SP/G
                 (UTC) (F)     (DEG/KT/KT) (MB)
THOMAS PT LIGHT  1700   76 82  150/  2/  3 1028.8S
BALT KEY BRIDGE  1648   75     110/  7/  9 1027.3F
COVE POINT       1642   76     140/  2/  5 1027.9F
LEWISETTA        1642   76 80   90/  7/  9 1026.9F
SOLOMONS ISLAND  1642   76 84  110/  8/  9   N/A
PINEY POINT      1642          130/  7/  9   N/A

$$





USA.gov is the U.S. government's official web portal to all federal, state and local government web resources and services.